This demonstration page uses our WeatherBlox Daily Observations layout. Learn more.

Left ArrowRight Arrow

34.16533, -84.80231

Hourly Observations for October 25, 2019

Temp ( °F °C ) Dew Point ( °F °C ) Humidity (%) Winds ( mph kmh ) Pressure ( in mb ) Visibility ( mi km ) Precip ( " mm )
12:53 am 00:53 Partly Cloudy 62 16.7 46 7.8 56 56 ESE 6 9 30.20 1023 10 16 0.00 0.00
1:53 am 01:53 Mostly Cloudy 62 16.7 46 7.8 56 56 E 3 6 30.21 1023 10 16 0.00 0.00
2:53 am 02:53 Mostly Cloudy 63 17.2 46 7.8 54 54 VRB 6 9 30.19 1023 10 16 0.00 0.00
3:23 am 03:23 Cloudy 62 16.7 46 7.8 56 56 E 5 7 30.18 1022 10 16 0.00 0.00
3:53 am 03:53 Cloudy 62 16.7 47 8.3 58 58 ESE 5 7 30.19 1022 10 16 0.00 0.00
4:30 am 04:30 Cloudy 62 16.7 46 7.8 56 56 VRB 6 9 30.18 1022 10 16 0.00 0.00
4:53 am 04:53 Cloudy 62 16.7 47 8.3 58 58 E 6 9 30.19 1022 10 16 0.00 0.00
5:53 am 05:53 Mostly Cloudy 61 16.1 47 8.3 60 60 VRB 6 9 30.18 1022 10 16 0.00 0.00
6:53 am 06:53 Mostly Cloudy 61 16.1 47 8.3 60 60 VRB 6 9 30.18 1022 10 16 0.00 0.00
7:40 am 07:40 Cloudy with Light Rain 60 15.6 49 9.4 67 67 Calm 30.18 1022 10 16 0.00 0.00
7:53 am 07:53 Cloudy 61 16.1 49 9.4 65 65 Calm 30.19 1023 10 16 0.00 0.00
8:53 am 08:53 Cloudy with Light Rain 57 13.9 53 11.7 87 87 NNE 3 6 30.19 1023 3 5 0.03 0.76
9:53 am 09:53 Cloudy with Light Rain 58 14.4 54 12.2 87 87 E 5 7 30.18 1022 8 13 0.05 1.27
10:53 am 10:53 Cloudy 61 16.1 54 12.2 78 78 Calm 30.17 1022 10 16 0.00 0.00
11:53 am 11:53 Cloudy with Light Rain 61 16.1 55 12.8 81 81 VRB 3 6 30.17 1022 8 13 0.01 0.25
12:50 pm 12:50 Cloudy with Rain 61 16 57 14 88 88 NNE 5 7 30.15 1021 3 4 0.07 1.78
12:53 pm 12:53 Cloudy with Light Rain 60 15.6 57 13.9 90 90 NNE 6 9 30.14 1021 3 5 0.08 2.03
1:09 pm 13:09 Cloudy with Heavy Rain 60 15.6 57 13.9 90 90 Calm 30.15 1021 2 3 0.08 2.03
1:27 pm 13:27 Cloudy with Heavy Rain 59 15 57 13.9 93 93 N 5 7 30.15 1021 1 1 0.31 7.87
1:33 pm 13:33 Cloudy with Rain 59 15 57 13.9 93 93 N 3 6 30.15 1021 1 2 0.33 8.38
1:39 pm 13:39 Cloudy with Rain 60 15.6 57 13.9 90 90 N 6 9 30.12 1020 3 5 0.34 8.64
1:53 pm 13:53 Cloudy 60 15.6 58 14.4 93 93 NNE 7 11 30.13 1020 10 16 0.34 8.64
2:13 pm 14:13 Cloudy with Light Rain 61 16.1 58 14.4 90 90 NE 3 6 30.12 1020 7 11 0.02 0.51
2:30 pm 14:30 Cloudy with Light Rain 60 15.6 58 14.4 93 93 N 6 9 30.09 1019 4 6 0.04 1.02
2:37 pm 14:37 Cloudy 60 15.6 58 14.4 93 93 N 6 9 30.09 1019 10 16 0.04 1.02
2:53 pm 14:53 Cloudy with Rain 60 15.6 58 14.4 93 93 N 3 6 30.10 1019 3 5 0.07 1.78
3:11 pm 15:11 Cloudy with Rain 60 15.6 58 14.4 93 93 Calm 30.09 1019 3 5 0.04 1.02
3:14 pm 15:14 Cloudy with Heavy Rain 60 15.6 58 14.4 93 93 Calm 30.09 1019 2 3 0.06 1.52
3:32 pm 15:32 Cloudy with Light Rain 60 15.6 58 14.4 93 93 Calm 30.09 1019 3 5 0.13 3.30
3:53 pm 15:53 Cloudy with Rain 60 15.6 58 14.4 93 93 NE 3 6 30.08 1019 3 5 0.18 4.57
4:10 pm 16:10 Cloudy with Light Rain 60 15.6 58 14.4 93 93 NNW 3 6 30.09 1019 4 6 0.03 0.76
4:53 pm 16:53 Cloudy with Light Rain 61 16.1 58 14.4 90 90 NE 3 6 30.08 1019 10 16 0.08 2.03
5:53 pm 17:53 Cloudy 60 15.6 58 14.4 93 93 NE 3 6 30.07 1018 10 16 0.02 0.51
6:50 pm 18:50 Cloudy with Light Rain 61 16 59 15 94 94 Calm 30.06 1018 8 13 0.00 0.00
6:53 pm 18:53 Cloudy with Light Rain 61 16.1 59 15 93 93 Calm 30.06 1018 8 13 0.00 0.00
7:53 pm 19:53 Mostly Cloudy 64 17.8 61 16.1 90 90 E 3 6 30.07 1018 10 16 0.00 0.00
8:53 pm 20:53 Mostly Cloudy 64 17.8 61 16.1 90 90 ENE 3 6 30.07 1018 10 16 0.00 0.00
9:53 pm 21:53 Cloudy 65 18.3 61 16.1 87 87 VRB 5 7 30.06 1018 10 16 0.00 0.00
10:53 pm 22:53 Cloudy 65 18.3 62 16.7 90 90 VRB 3 6 30.07 1018 10 16 0.02 0.51
11:45 pm 23:45 Cloudy with Light Rain 65 18.3 62 16.7 90 90 VRB 3 6 30.06 1018 8 13 0.01 0.25
11:53 pm 23:53 Cloudy 65 18.3 63 17.2 93 93 VRB 3 6 30.06 1018 10 16 0.01 0.25

Powered by AerisWeather